This is the latest recevied weather packets stored in our database for station/object DO7ZT-13. If no packets are shown the sender has not sent any weather packets the latest 10 day(s).
| Time | Temp. | Humidity | Pressure | Rain* | Wind** | Luminosity | Snow |
|---|---|---|---|---|---|---|---|
| 1778049925 | 13.89° C | 80% | 1005.3 hPa | 0 mm | 0.89 m/s, 234° | - | - |
| 1778049612 | 13.89° C | 84% | 1005.3 hPa | 0 mm | 0.89 m/s, 150° | - | - |
| 1778049337 | 13.89° C | 84% | 1005.3 hPa | 0 mm | 0.89 m/s, 174° | - | - |
| 1778049025 | 13.89° C | 86% | 1005.3 hPa | 0 mm | 0.45 m/s, 313° | - | - |
| 1778048713 | 13.89° C | 86% | 1005.3 hPa | 0 mm | 0.45 m/s, 186° | - | - |
| 1778048425 | 13.89° C | 86% | 1005.3 hPa | 0 mm | 0.89 m/s, 162° | - | - |
| 1778048113 | 12.78° C | 86% | 1005.1 hPa | 0 mm | 1.34 m/s, 191° | - | - |
| 1778047825 | 12.78° C | 86% | 1005.1 hPa | 0 mm | 1.34 m/s, 192° | - | - |
| 1778047513 | 12.78° C | 86% | 1005.1 hPa | 0 mm | 1.34 m/s, 160° | - | - |
| 1778047225 | 12.78° C | 84% | 1005.1 hPa | 0 mm | 1.34 m/s, 168° | - | - |
| 1778046913 | 12.78° C | 86% | 1005.1 hPa | 0 mm | 1.79 m/s, 168° | - | - |
| 1778046625 | 12.78° C | 88% | 1005.1 hPa | 0 mm | 1.79 m/s, 167° | - | - |
| 1778046313 | 12.78° C | 89% | 1005.2 hPa | 0 mm | 1.79 m/s, 174° | - | - |
| 1778046025 | 12.22° C | 87% | 1005.2 hPa | 0 mm | 0.89 m/s, 134° | - | - |
| 1778045713 | 12.22° C | 91% | 1005.2 hPa | 0 mm | 1.34 m/s, 180° | - | - |
| 1778045425 | 12.22° C | 90% | 1005.2 hPa | 0 mm | 1.34 m/s, 198° | - | - |
| 1778045113 | 12.22° C | 91% | 1005.2 hPa | 0 mm | 1.34 m/s, 166° | - | - |
| 1778044825 | 12.22° C | 91% | 1005.2 hPa | 0 mm | 0.45 m/s, 161° | - | - |
| 1778044513 | 12.22° C | 91% | 1005.1 hPa | 0 mm | 0.89 m/s, 150° | - | - |
| 1778044225 | 12.22° C | 91% | 1005.1 hPa | 0 mm | 0.89 m/s, 138° | - | - |
| 1778043913 | 12.22° C | 91% | 1005.1 hPa | 0 mm | 1.79 m/s, 156° | - | - |
| 1778043627 | 12.22° C | 91% | 1005 hPa | 0 mm | 0.89 m/s, 160° | - | - |
| 1778043313 | 12.22° C | 91% | 1005 hPa | 0 mm | 0.89 m/s, 144° | - | - |
| 1778043025 | 12.22° C | 91% | 1005 hPa | 0 mm | 1.34 m/s, 150° | - | - |
| 1778042713 | 12.22° C | 92% | 1005 hPa | 0 mm | 1.34 m/s, 154° | - | - |
* Rain latest hour (hover to see other rain measurements)
** Current wind speed in m/s (hover to see current wind gust speed)